This is the latest recevied weather packets stored in our database for station/object IW8PDD-3. If no packets are shown the sender has not sent any weather packets the latest 10 day(s).
| Time | Temp. | Humidity | Pressure | Rain* | Wind** | Luminosity | Snow |
|---|---|---|---|---|---|---|---|
| 1777937752 | 18.33° C | 52% | 1018.5 hPa | - | - | - | - |
| 1777936548 | 17.78° C | 52% | 1018.6 hPa | - | - | - | - |
| 1777934141 | 18.33° C | 51% | 1019.1 hPa | - | - | - | - |
| 1777932938 | 18.33° C | 52% | 1018.8 hPa | - | - | - | - |
| 1777931735 | 18.33° C | 52% | 1018.9 hPa | - | - | - | - |
| 1777930531 | 18.33° C | 52% | 1019.2 hPa | - | - | - | - |
| 1777929328 | 18.33° C | 53% | 1019 hPa | - | - | - | - |
| 1777928124 | 18.89° C | 52% | 1019.1 hPa | - | - | - | - |
| 1777926921 | 18.89° C | 52% | 1019.4 hPa | - | - | - | - |
| 1777925717 | 19.44° C | 51% | 1019.3 hPa | - | - | - | - |
| 1777924514 | 19.44° C | 50% | 1019.4 hPa | - | - | - | - |
| 1777923310 | 19.44° C | 50% | 1019.2 hPa | - | - | - | - |
| 1777922107 | 20° C | 49% | 1019.2 hPa | - | - | - | - |
| 1777920903 | 20° C | 49% | 1019 hPa | - | - | - | - |
| 1777919700 | 20° C | 50% | 1018.9 hPa | - | - | - | - |
| 1777918496 | 20.56° C | 49% | 1018.8 hPa | - | - | - | - |
| 1777917293 | 20.56° C | 47% | 1018.7 hPa | - | - | - | - |
| 1777914886 | 21.67° C | 44% | 1018.4 hPa | - | - | - | - |
| 1777913683 | 22.22° C | 43% | 1018.2 hPa | - | - | - | - |
| 1777912479 | 22.78° C | 43% | 1018.3 hPa | - | - | - | - |
| 1777911276 | 22.78° C | 44% | 1018.3 hPa | - | - | - | - |
| 1777910072 | 23.89° C | 44% | 1018.6 hPa | - | - | - | - |
| 1777908868 | 24.44° C | 43% | 1018.6 hPa | - | - | - | - |
| 1777907664 | 27.22° C | 42% | 1018.5 hPa | - | - | - | - |
| 1777906460 | 27.78° C | 43% | 1018.5 hPa | - | - | - | - |
* Rain since midnight (hover to see other rain measurements)
** Current wind speed in m/s (hover to see current wind gust speed)